Simultaneous Nadir Overpasses (SNOs) Predictions

Prediction of SNOs between NOAA-19 and NPP Satellite Orbit:

Table of predicted SNOs for the next 14.0 days since TLE Epoch: 12/6/2019
Index Date (NOAA-19) Time (NOAA-19) Lat,Lon (NOAA-19) SZA (NOAA-19 ) Date (NPP) Time (NPP) Lat,Lon (NPP) SZA (NPP ) Distance(km) Time Diff (sec)
1 12/19/2019 15:33:44 -79.69, 90.20 75.13 12/19/2019 15:34:55 -79.72, 90.23 75.14 3.24 71
2 12/19/2019 16:24:47 79.69,-102.55 104.87 12/19/2019 16:25:39 79.72,-102.45 104.86 3.59 52
3 12/19/2019 17:15:43 -79.71, 64.91 75.14 12/19/2019 17:16:24 -79.73, 64.82 75.13 2.42 41
4 12/19/2019 18:06:47 79.71,-127.84 104.87 12/19/2019 18:07:09 79.73,-127.87 104.87 1.55 22
5 12/19/2019 18:57:44 -79.70, 39.32 75.13 12/19/2019 18:57:54 -79.73, 39.40 75.12 3.42 10
6 12/19/2019 19:48:47 79.73,-153.13 104.87 12/19/2019 19:48:39 79.73,-153.29 104.88 3.10 8
7 12/19/2019 20:39:44 -79.72, 14.02 75.14 12/19/2019 20:39:24 -79.73, 13.98 75.11 1.66 20
8 12/19/2019 21:30:48 79.72,-178.72 104.87 12/19/2019 21:30:09 79.73,-178.70 104.89 1.26 39
9 12/19/2019 22:21:44 -79.74, -11.27 75.14 12/19/2019 22:20:54 -79.74, -11.43 75.10 3.24 50
10 12/19/2019 23:12:48 79.74, 155.99 104.87 12/19/2019 23:11:39 79.74, 155.88 104.90 2.28 69




NCC Satellite Simultaneous Nadir Overpasses (SNOs) Prediction Service
